Location: ????
(30.2663°N, 31.2484°E)
Time: 07:37:39
(UTC+00:00)

CZ-2C R/B - Pass Details

Date: 27 September 2022
Orbit: 667 x 784 km, 98.3° (Epoch: 28 November)

Event Time Altitude Azimuth Distance (km) Brightness Sun altitude
Rises 01:02:12 0° 17° (NNE) 3,206 6.2 -35.5°
Reaches altitude 10° 01:04:34 10° 21° (NNE) 2,261 5.3 -35.0°
Enters shadow 01:06:45 26° 29° (NNE) 1,441 4.3 -34.5°
